{"data":{"norad_id":65594,"epoch":"2026-05-25T04:59:24.811584Z","epoch_age_seconds":57814,"freshness":"FRESH","line1":"1 65594U 25207C   26145.20792606  .00046128  00000+0  31724-2 0  9994","line2":"2 65594  97.4536 213.6946 0001314 118.8788 241.2571 15.05744496 39601","mean_motion":15.05744496,"eccentricity":0.0001314,"inclination_deg":97.4536,"raan_deg":213.6946,"arg_perigee_deg":118.8788,"mean_anomaly_deg":241.2571,"bstar":0.0031724,"rev_number":3960,"period_min":95.633754851859,"perigee_km":548.31105720428,"apogee_km":550.13156696869,"semimajor_km":6927.3583120865,"source":"CELESTRAK","updated_at":"2026-05-25T13:38:20.852060Z"}}